Location: Courcelles
(49.2596°N, 1.7419°E)
Time: 00:45:47
(UTC+00:00)

Cosmos 2251 Rocket - Pass Details

Date: 17 November 2025
Orbit: 760 x 788 km, 74.0° (Epoch: 05 December)

Event Time Altitude Azimuth Distance (km) Brightness Sun altitude
Rises 18:01:14 0° 197° (SSW) 3,232 7.1 -18.1°
Reaches altitude 10° 18:03:35 10° 195° (SSW) 2,313 6.3 -18.5°
Maximum altitude 18:08:50 77° 111° (ESE) 802 3.4 -19.3°
Enters shadow 18:12:36 20° 27° (NNE) 1,752 5.0 -20.0°
